Location: Launay
(47.2429°N, 1.5727°E)
Time: 22:09:46
(UTC+00:00)

MetOp-B - Pass Details

Date: 19 May 2025
Orbit: 820 x 821 km, 98.6° (Epoch: 18 June)

Event Time Altitude Azimuth Distance (km) Brightness Sun altitude
Exits shadow 20:20:55 - 166° (SSE) 2,954 6.5 -8.0°
Reaches altitude 10° 20:22:17 10° 166° (SSE) 2,411 6.1 -8.2°
Maximum altitude 20:27:38 85° 254° (WSW) 831 4.2 -8.9°
Drops below altitude 10° 20:33:02 10° 345° (NNW) 2,428 7.6 -9.5°
Sets 20:35:24 0° 346° (NNW) 3,364 8.4 -9.8°
